Regional Weather Roundup
Issued by NWS

Home | Current Version | Previous Version | Text Only | Print | Product List | Glossary On
Versions: 1 2 3 4 5 6 7 8 9 10 11 12 13 14 15 16 17 18 19 20 21 22 23 24 25 26 27 28 29 30 31 32 33 34 35 36 37 38 39 40 41 42 43 44 45 46 47 48 49 50
000
ASUS44 KFWD 161115
RWRTX
NORTH TEXAS HOURLY WEATHER ROUNDUP
NATIONAL WEATHER SERVICE FORT WORTH TX
500 AM CST SAT DEC 16 2017

NOTE: "FAIR" INDICATES FEW OR NO CLOUDS BELOW 12,000 FEET WITH NO
SIGNIFICANT WEATHER AND/OR OBSTRUCTIONS TO VISIBILITY.

TXZ118-119-161200-
DALLAS/FORT WORTH METROPLEX

CITY           SKY/WX    TMP DP  RH WIND       PRES   REMARKS
DFW AIRPORT    CLOUDY    41  27  57 S8        30.11F WCI  36
DALLAS LOVE    CLOUDY    40  27  59 SE6       30.14F WCI  36
FTW MEACHAM    CLOUDY    44  27  51 S10       30.13F WCI  39
DAL-EXECUTIVE  CLOUDY    43  28  55 S7        30.13F WCI  39
FTW-ALLIANCE   CLOUDY    43  26  51 S7        30.11F WCI  39
FTW-NAS-JRB    CLOUDY    41  27  57 S8        30.13  WCI  36
FTW-SPINKS     CLOUDY    44  28  53 S8        30.15S WCI  39
ARLINGTON      CLOUDY    37  26  64 S6        30.14F WCI  32
GRAND PRAIRIE  CLOUDY    39  26  58 S6        30.15F WCI  35
MESQUITE       PTCLDY    31  22  69 SE5       30.16F WCI  27
LANCASTER      CLOUDY    34  22  60 S3        30.16F
$$

TXZ091>094-102>105-117-120-121-131>134-161200-
NORTH CENTRAL TEXAS

CITY           SKY/WX    TMP DP  RH WIND       PRES   REMARKS
SHRMAN/DENISON CLOUDY    39  26  58 S10       30.13S WCI  32
GAINESVILLE    CLOUDY    31  22  71 CALM      30.13F
BOWIE          CLOUDY    30  23  73 CALM      30.09F
BRIDGEPORT     CLOUDY    30  23  74 CALM      30.12F
DECATUR        CLOUDY    41  23  48 S7        30.09F WCI  37
DENTON         CLOUDY    36  25  64 CALM      30.12F
MCKINNEY       PTCLDY    34  26  72 SE6       30.13F WCI  29
BONHAM         CLOUDY    38  24  58 S12       30.14S WCI  30
GREENVILLE     PTCLDY    34  28  80 CALM      30.16F
ROCKWALL       PTCLDY    37  26  65 S6        30.15F WCI  33
TERRELL        CLOUDY    35  27  72 CALM      30.17F
WAXAHACHIE     CLOUDY    40  30  67 S6        30.16F WCI  36
CLEBURNE       CLOUDY    37  28  70 SE6       30.14F WCI  33
GRANBURY       PTCLDY    42  26  54 CALM      30.14F
$$

TXZ083>090-098>101-113>116-127>130-139>142-154-155-161200-
WESTERN NORTH TEXAS

CITY           SKY/WX    TMP DP  RH WIND       PRES   REMARKS
WICHITA FALLS  CLOUDY    33  22  63 S12       30.06F WCI  24
WF-KICKAPOO    CLOUDY    34  23  65 S6        30.09F WCI  28
VERNON         CLOUDY    32  19  59 S9        30.04F WCI  24
ABILENE        PTCLDY    37  24  59 S15G21    30.07F WCI  28
ABILENE-DYESS  PTCLDY    39  24  55 S8        30.07S WCI  33
GRAHAM           N/A     28  22  80 CALM      30.07F
BRECKENRIDGE   PTCLDY    42  24  48 S10       30.08F WCI  36
CISCO          CLOUDY    37  23  56 S9        30.09F WCI  31
EASTLAND       CLOUDY    28  22  79 CALM      30.10F
RANGER         CLOUDY    34  26  70 SW8       30.10F WCI  28
MINERAL WELLS  CLOUDY    33  23  66 SE8       30.10F WCI  26
STEPHENVILLE   CLOUDY    36  25  64 CALM      30.14F
COMANCHE       CLOUDY    41  27  58 SW8       30.13F WCI  36
BROWNWOOD      CLOUDY    30  19  64 CALM      30.13F
COLEMAN        CLOUDY    34  23  64 CALM      30.11F
$$

TXZ143>147-156>162-174-175-161200-
CENTRAL TEXAS

CITY           SKY/WX    TMP DP  RH WIND       PRES   REMARKS
WACO           MOCLDY    40  30  67 S7        30.17F WCI  35
WACO-MCGREGOR  PTCLDY    38  30  73 SW6       30.18R WCI  33
HILLSBORO      MOCLDY    38  29  69 CALM      30.14F
CORSICANA      PTCLDY    39  29  67 S7        30.19F WCI  34
MEXIA          CLOUDY    37  29  73 S7        30.18S WCI  31
HEARNE         PTCLDY    37  33  89 CALM      30.20F
CAMERON        CLOUDY    42  33  69 SW6       30.19F WCI  39
TEMPLE         PTCLDY    38  30  73 S9        30.18S WCI  31
KILLEEN        CLOUDY    39  31  75 S3        30.14F
KILLEEN-SKYLRK CLOUDY    38  32  79 CALM      30.16F
FORT HOOD      CLOUDY    40  31  69 S5        30.12F WCI  37
GATESVILLE     CLOUDY    36  28  75 CALM      30.17F
HAMILTON       PTCLDY    37  29  73 S7        30.14F WCI  31
LAMPASAS       CLOUDY    39  31  72 W5        30.14F WCI  35
$$

TXZ095>097-106>112-122>126-135>138-148>153-164>167-161200-
EAST TEXAS

CITY           SKY/WX    TMP DP  RH WIND       PRES   REMARKS
PARIS          PTCLDY    32  27  81 S8        30.16F WCI  25
SULPHUR SPRNGS CLOUDY    39  28  65 S8        30.18F WCI  34
MOUNT PLEASANT CLOUDY    29  27  92 E3        30.20F
GILMER         CLOUDY    32  28  83 S3        30.19S
MINEOLA        PTCLDY    27  25  93 CALM      30.17F
TYLER          PTCLDY    36  29  75 S8        30.17F WCI  30
LONGVIEW       CLOUDY    35  32  88 S5        30.20S WCI  31
MARSHALL       PTCLDY    28  26  93 CALM      30.23F
ATHENS         CLOUDY    28  27  93 CALM      30.18F
PALESTINE      CLOUDY    38  32  79 SE3       30.20F
JACKSONVILLE   PTCLDY    39  34  81 S6        30.20F WCI  35
HENDERSON      PTCLDY    30  29  94 CALM      30.20F
CENTER         CLOUDY    30  28  94 CALM      30.22F
NACOGDOCHES    PTCLDY    27  26  96 CALM      30.21F
LUFKIN         MOCLDY    34  32  92 CALM      30.21F
$$

SUPPLEMENTAL OBSERVATIONS (NWS FORT WORTH AREA)

CITY           SKY/WX    TMP DP  RH WIND       PRES   REMARKS
DENISON DAM      N/A     43  27  52 SW10        N/A  WCI  37
CADDO GRASSLND   N/A     39  28  65 S8          N/A  WCI  34
PAT MAYSE LAKE   N/A     39  28  65 SE8         N/A  WCI  34
GREENVILLE       N/A     37  30  75 S5          N/A  WCI  34
CEDAR HILL       N/A     45  28  53 S6          N/A
LBJ GRASSLAND    N/A     37  23  56 SE5         N/A  WCI  34
COMANCHE         N/A     41  25  52 SW7         N/A  WCI  36
MCGREGOR         N/A     36  28  75 SW3         N/A
LAKE LIMESTONE   N/A     36  32  87 SE2         N/A
ATHENS           N/A     39  30  70 S3          N/A
$$

SUPPLEMENTAL OBSERVATIONS (NWS NORMAN AREA)

CITY           SKY/WX    TMP DP  RH WIND       PRES   REMARKS
GOODLETT         N/A     29  22  74 S9        30.00F WCI  20
ODELL            N/A     35  23  62 S14       30.03F WCI  25
CROWELL          N/A     29  20  68 SW6       30.04F WCI  23
KNOX CITY        N/A     31  20  63 SW7       30.05F WCI  25
SEYMOUR          N/A     33  22  64 S7        30.05F WCI  27
MILLERS CREEK    N/A     30  23  74 SW6         N/A  WCI  24
$$

SUPPLEMENTAL OBSERVATIONS (NWS SAN ANGELO AREA)

CITY           SKY/WX    TMP DP  RH WIND       PRES   REMARKS
WEINERT          N/A     32  20  62 S9        30.05F WCI  24
HASKELL          N/A     30  20  66 SW7       30.05F WCI  23
THROCKMORTON     N/A     37  23  56 S7        30.07F WCI  31
STAMFORD         N/A     35  23  61 S6        30.07F WCI  30
CLYDE            N/A     38  24  58 S8        30.08S WCI  32
HAMBY            N/A     37  23  56 S9          N/A  WCI  31
IVIE RESERVOIR   N/A     37  30  75 S3          N/A
COLORADO BEND    N/A     39  28  65 S6          N/A  WCI  35
$$

SUPPLEMENTAL OBSERVATIONS (NWS SHREVEPORT AREA)

CITY           SKY/WX    TMP DP  RH WIND       PRES   REMARKS
CLARKSVILLE      N/A     32  27  80 S3          N/A
TEXARKANA        N/A     27  25  93 CALM        N/A
LINDEN           N/A     32  30  93 CALM        N/A
CADDO LAKE       N/A     27  25  93 CALM        N/A
GILMER           N/A     30  27  86 S2          N/A
HENDERSON        N/A     32  30  93 CALM        N/A
LUFKIN           N/A     32  32 100 MISG        N/A
S SABINE NF      N/A     32  32 100 CALM        N/A
$$

SUPPLEMENTAL OBSERVATIONS ARE A COLLECTION OF AUTOMATED INSTRUMENTS
THAT ARE MAINTAINED BY A VARIETY OF FEDERAL AND STATE AGENCIES.
CERTAIN ELEMENTS...SUCH AS HUMIDITY VALUES AND SUSTAINED WIND
SPEEDS...MAY BE APPROXIMATED.





USA.gov is the U.S. government's official web portal to all federal, state and local government web resources and services.